Location: Alafon
(8.4500°N, 4.2333°E)
Time: 22:23:09
(UTC+00:00)

Explorer 7 - Pass Details

Date: 31 July 2021
Orbit: 484 x 676 km, 50.3° (Epoch: 18 September)

Event Time Altitude Azimuth Distance (km) Brightness Sun altitude
Rises 03:22:58 0° 248° (WSW) 2,549 - -31.0°
Reaches altitude 10° 03:25:47 10° 270° (W) 1,656 - -30.4°
Maximum altitude 03:28:10 16° 310° (NW) 1,315 - -29.8°
Drops below altitude 10° 03:30:33 10° 350° (N) 1,653 - -29.3°
Exits shadow 03:31:20 - 359° (N) 1,870 9.8 -29.1°
Sets 03:33:22 0° 13° (NNE) 2,542 10.7 -28.7°
